This demonstration page uses our WeatherBlox Daily Observations layout. Learn more.

Left ArrowRight Arrow

Hourly Observations for November 29, 2022

Temp ( °F °C ) Dew Point ( °F °C ) Humidity (%) Winds ( mph kmh ) Pressure ( in mb ) Visibility ( mi km ) Precip ( " mm )
12:53 am 00:53 Mostly Cloudy 59 15 51 10.6 75 75 SSE 9 15 29.74 1007 10 16 0.00 0.00
1:17 am 01:17 Mostly Cloudy 59 15 52 11.1 77 77 S 9 15 29.76 1008 10 16 0.00 0.00
1:53 am 01:53 Mostly Cloudy 59 15 54 12.2 83 83 SSE 8 13 29.73 1007 10 16 0.00 0.00
2:03 am 02:03 Mostly Cloudy 59 15 54 12.2 83 83 SSE 7 11 29.74 1007 10 16 0.00 0.00
2:16 am 02:16 Cloudy 60 15.6 55 12.8 83 83 SSE 10 17 29.74 1007 10 16 0.00 0.00
2:53 am 02:53 Cloudy 61 16.1 57 13.9 87 87 SSE 8 13 29.71 1006 10 16 0.00 0.00
3:24 am 03:24 Cloudy 61 16.1 58 14.4 90 90 SSE 9 15 29.71 1006 10 16 0.00 0.00
3:53 am 03:53 Cloudy 63 17.2 60 15.6 90 90 SSE 10 17 29.69 1006 10 16 0.00 0.00
4:53 am 04:53 Cloudy 65 18.3 62 16.7 90 90 S 10 17 29.69 1005 10 16 0.00 0.00
5:53 am 05:53 Cloudy 66 18.9 62 16.7 87 87 S 10 17 29.69 1005 10 16 0.00 0.00
6:53 am 06:53 Cloudy 67 19.4 63 17.2 87 87 S 10 17 29.70 1006 9 14 0.00 0.00
7:53 am 07:53 Cloudy 67 19.4 63 17.2 87 87 VRB 7 11 29.72 1006 8 13 0.00 0.00
8:31 am 08:31 Mostly Cloudy 67 19.4 64 17.8 90 90 S 6 9 29.73 1007 9 14 0.00 0.00
8:53 am 08:53 Mostly Cloudy 68 20 64 17.8 87 87 SSE 5 7 29.73 1007 9 14 0.00 0.00
9:53 am 09:53 Partly Cloudy 71 21.7 64 17.8 79 79 SSW 10 17 29.73 1007 10 16 0.00 0.00
10:53 am 10:53 Mostly Cloudy 72 22.2 63 17.2 73 73 SSW 13 20 29.72 1006 10 16 0.00 0.00
11:13 am 11:13 Mostly Cloudy 73 22.8 63 17.2 71 71 SSW 14 22 29.71 1006 10 16 0.00 0.00
11:39 am 11:39 Mostly Cloudy 72 22.2 63 17.2 73 73 SW 9 15 29.70 1006 10 16 0.00 0.00
11:53 am 11:53 Partly Cloudy 74 23.3 63 17.2 69 69 SW 13 20 29.70 1006 10 16 0.00 0.00
12:53 pm 12:53 Mostly Sunny 76 24.4 61 16.1 60 60 SW 15 24 29.67 1005 10 16 0.00 0.00
1:53 pm 13:53 Mostly Sunny 77 25 61 16.1 58 58 SW 9 15 29.65 1004 10 16 0.00 0.00
2:53 pm 14:53 Mostly Sunny 79 26.1 57 13.9 47 47 SW 13 20 29.65 1004 10 16 0.00 0.00
3:53 pm 15:53 Mostly Sunny 79 26.1 57 13.9 47 47 SW 6 9 29.65 1004 10 16 0.00 0.00
4:53 pm 16:53 Mostly Sunny 78 25.6 52 11.1 40 40 WSW 5 7 29.67 1005 10 16 0.00 0.00
5:53 pm 17:53 Mostly Clear 74 23.3 51 10.6 45 45 Calm 29.69 1006 10 16 0.00 0.00
6:53 pm 18:53 Mostly Clear 69 20.6 53 11.7 57 57 Calm 29.72 1007 10 16 0.00 0.00
7:53 pm 19:53 Mostly Clear 69 20.6 44 6.7 40 40 N 16 26 29.79 1009 10 16 0.00 0.00
8:53 pm 20:53 Clear 57 13.9 41 5 55 55 N 21 33 29.90 1013 10 16 0.00 0.00
9:53 pm 21:53 Clear 49 9.4 35 1.7 59 59 N 21 33 30.01 1016 10 16 0.00 0.00
10:53 pm 22:53 Clear 45 7.2 32 0 60 60 N 22 35 30.09 1019 10 16 0.00 0.00
11:53 pm 23:53 Clear 43 6.1 30 -1.1 60 60 N 14 22 30.13 1020 10 16 0.00 0.00

Powered by AerisWeather